www.pogodaiklimat.ru

Погода и климат >> Архив погоды >> Россия >> Самарская область >> Сызрань


ПОГОДА в Сызрани

АРХИВ ПОГОДЫ в Сызрани

Время (UTC), дата Ветер
(напр.,м/с)
 
Видим.   Явления Облачность Т
(С)
Тd
(С)
f
(%)
Тe
(С)
Тes
(С)
Комфортность P
(гПа)
Po
(гПа)
Тmin
(С)
Tmax
(С)
R
(мм)
R24
(мм)
S
(см)
21 11.12 В 1 20 км ясно -11.6 -13.7 84 -14 -14 по сезону 1024.4 1010.6
00 12.12 СВ 2 21 км ясно -11.9 -14.1 84 -16 -16 по сезону 1023.8 1010.1
03 12.12 СВ 2 20 км 9/0
[Ac trans]
-10.3 -13.3 79 -15 -15 по сезону 1023.2 1009.5 -13.0 17
06 12.12 СВ 2 20 км 9/4 1000 м
[Sc Ac trans]
-9.0 -12.3 77 -13 -13 по сезону 1022.9 1009.2
09 12.12 В 2 20 км 9/3 1000 м
[Sc Ac trans Ci fib]
-5.9 -11.3 66 -10 -9 по сезону 1021.7 1008.3
12 12.12 СВ 2 20 км 9/4 1000 м
[Sc Ac trans]
-7.2 -11.3 72 -11 -11 по сезону 1020.4 1006.9
15 12.12 СВ 2 18 км 10/10 900 м
[Sc]
-7.4 -11.5 72 -12 -12 по сезону 1020.1 1006.6 -5.6
18 12.12 С 2 17 км 10/10 870 м
[Sc]
-7.1 -10.6 76 -11 -11 по сезону 1019.4 1005.9
21 12.12 СВ 2 10 км слабый переохл. дождь (гололёд) {снег} 10/10 360 м
[St]
-6.0 -8.1 85 -10 -10 по сезону 1019.1 1005.7
00 13.12 СВ 1 н/о н/о -4.8 -6.2 90 -7 -7 тепло 1018.7 1005.4
03 13.12 СВ 2 9000 м слабый снег 10/10 330 м
[St]
-3.4 -4.7 91 -8 -8 по сезону 1018.7 1005.4 -7.9 2 15
06 13.12 СВ 2 4000 м слабый снег [диам. гололёда 1 мм] 10/10 300 м
[St]
-2.6 -3.9 91 -7 -7 тепло 1019.7 1006.5
09 13.12 СВ 2 500 м слабая переохл. морось (гололёд) {туман} ?/? -1.5 -2.7 92 -5 -5 тепло 1019.7 1006.5
12 13.12 СВ 2 10 км {снег, морось} 10/10 360 м
[St]
-2.5 -3.8 91 -7 -7 по сезону 1020.6 1007.4
15 13.12 СВ 2 7000 м дымка 10/10 330 м
[St]
-2.5 -3.8 91 -7 -7 по сезону 1020.9 1007.6 -1.3 0.7
18 13.12 СВ 2 12 км 10/10 420 м
[St]
-2.9 -5.2 84 -7 -7 тепло 1020.8 1007.5
21 13.12 СВ 2 15 км 10/3 600 м
[Sc Ac und]
-3.3 -6.6 78 -7 -7 тепло 1020.3 1007.0
00 14.12 СВ 4 18 км 10/0
[Ac und]
-3.2 -8.0 69 -9 -9 по сезону 1019.7 1006.4
03 14.12 СВ 4 17 км 10/5 600 м
[Sc Ac und]
-3.3 -8.5 67 -9 -9 по сезону 1018.7 1005.5 -3.5 14
06 14.12 СВ 4 20 км 10/10 630 м
[Sc]
-3.0 -8.3 67 -9 -9 по сезону 1018.8 1005.5 -3.6
09 14.12 СВ 4 10 км слабый снег 10/10 420 м
[St]
-2.9 -6.1 79 -9 -9 по сезону 1018.7 1005.5
12 14.12 СВ 4 10 км слабый снег 10/10 400 м
[St]
-2.7 -5.0 84 -9 -9 по сезону 1018.7 1005.5
15 14.12 СВ 4 6000 м слабый снег 10/10 300 м
[St]
-2.2 -4.2 86 -8 -8 по сезону 1018.9 1005.7 -2.2 6
18 14.12 СВ 4 7000 м слабый снег 10/10 360 м
[St]
-3.1 -5.8 82 -9 -9 по сезону 1019.3 1006.0
21 14.12 С 4 12 км 10/10 400 м
[St]
-3.4 -6.3 80 -9 -9 по сезону 1019.3 1006.0
00 15.12 СВ 4
{10}
13 км позёмок {снег, метель} 10/10 500 м
[Sc]
-4.0 -6.4 83 -10 -10 по сезону 1019.6 1006.3
03 15.12 СВ 5
{12}
13 км позёмок {снег, метель} 10/10 570 м
[Sc]
-4.2 -6.8 82 -11 -11 по сезону 1020.2 1006.9 -4.3 0.6 16
06 15.12 СВ 4
{10}
20 км позёмок {снег, метель} 8/8 800 м
[Sc]
-4.7 -7.4 81 -11 -11 по сезону 1022.0 1008.6 -4.7
09 15.12 С 5
{10}
20 км позёмок {снег, метель} 10/10 750 м
[Sc]
-3.8 -6.8 80 -11 -11 по сезону 1023.5 1010.1
12 15.12 С 5-10
{10}
20 км позёмок {снег, метель} 10/10 500 м
[Sc]
-3.4 -6.4 80 -10 -10 по сезону 1024.8 1011.5
15 15.12 С 4
{10}
16 км позёмок {метель} 10/10 500 м
[Sc]
-4.4 -7.2 81 -11 -11 по сезону 1026.6 1013.2 -3.4 0.2
18 15.12 С 5-10
{11}
16 км позёмок {метель} 10/10 540 м
[Sc]
-5.0 -7.8 81 -12 -12 по сезону 1028.2 1014.7
21 15.12 С 4 17 км позёмок {метель} 10/10 570 м
[Sc]
-5.5 -8.1 82 -12 -12 по сезону 1029.6 1016.0
00 16.12 С 5 17 км позёмок 10/10 630 м
[Sc]
-5.9 -8.5 82 -13 -13 по сезону 1031.1 1017.6
03 16.12 С 4
{12}
18 км {метель} 10/10 660 м
[Sc]
-6.5 -8.7 84 -13 -13 по сезону 1032.4 1018.8 -6.5 14
06 16.12 С 3 20 км {метель} 9/6 600 м
[Sc Ac trans]
-6.7 -10.4 75 -12 -12 по сезону 1033.8 1020.2 -7.0
09 16.12 С 3 20 км 3/0
[Ci fib]
-6.3 -10.9 70 -12 -11 по сезону 1034.4 1020.7
12 16.12 С 3 20 км 10/10 420 м
[St]
-7.5 -10.7 78 -13 -13 по сезону 1034.7 1021.0
15 16.12 С 4 19 км 10/10 300 м
[St]
-8.0 -10.2 84 -15 -15 по сезону 1035.8 1022.0 -6.2
18 16.12 С 2 18 км 10/10 360 м
[St]
-7.4 -9.5 85 -12 -12 по сезону 1036.0 1022.3
21 16.12 С 3 18 км 10/10 330 м
[St]
-7.8 -9.6 87 -14 -14 по сезону 1036.4 1022.7
00 17.12 С 3 17 км 10/10 300 м
[St]
-8.6 -10.4 87 -14 -14 по сезону 1037.0 1023.2
03 17.12 С 2 19 км 10/10 330 м
[St]
-9.0 -10.9 86 -14 -14 по сезону 1036.4 1022.7 -9.0 14
06 17.12 СЗ 1 20 км 10/10 330 м
[St]
-8.8 -11.2 83 -11 -11 по сезону 1036.8 1023.1 -9.1
09 17.12 СЗ 1 20 км 10/10 360 м
[St]
-7.1 -9.8 81 -9 -9 по сезону 1036.6 1022.9
12 17.12 СЗ 1 20 км 10/10 420 м
[St]
-5.8 -8.5 81 -8 -8 по сезону 1036.1 1022.5
15 17.12 З 1 12 км 10/10 330 м
[St]
-5.9 -8.2 84 -8 -8 по сезону 1036.5 1022.9 -5.7
18 17.12 С 1 14 км 10/10 360 м
[St]
-5.1 -7.0 86 -7 -7 тепло 1037.0 1023.4
21 17.12 С 1 12 км 10/10 330 м
[St]
-4.4 -6.7 84 -7 -7 тепло 1037.4 1023.8
00 18.12 С 1 11 км 10/10 400 м
[St]
-4.2 -6.6 83 -6 -6 тепло 1037.3 1023.7
03 18.12 штиль 0 9000 м дымка 10/10 360 м
[St]
-4.6 -6.6 86 -6 -6 тепло 1037.4 1023.8 -6.3 13
06 18.12 В 1 20 км 10/10 600 м
[Sc]
-4.3 -6.0 88 -7 -7 тепло 1037.7 1024.1
09 18.12 В 2 20 км 3/0
[Ac trans]
-3.2 -6.6 77 -7 -6 тепло 1037.8 1024.3
12 18.12 штиль 0 20 км 9/0
[Ac trans]
-4.1 -6.6 83 -5 -5 тепло 1038.0 1024.4
15 18.12 В 1 17 км 10/10 800 м
[Sc]
-5.4 -7.2 87 -8 -8 по сезону 1038.2 1024.6 -3.0

 

Местоположение метеостанции Сызрань (Самарская область, Россия): широта 53.18 долгота 48.40 высота над уровнем моря 103 м.

В архиве по умолчанию представлена погода в Сызрани за последнюю неделю. Архивные данные за месяц целиком и за предыдущие месяцы, начиная с января 2011 года, Вы можете получить, выбрав интересующий диапазон дат из раскрывающегося списка и нажав кнопку "Ввод!".


*Определитесь, кто Вы:
робот инопланетянин человек

Внимание! Время в таблицах - всемирное. Для получения местного времени необходимо прибавить поправку, которая в Сызрани равна 4 ч.

Смотрите также архив погоды в соседних городах и на ближайших метеорологических станциях:

Погода в Приволжье (Самарская область, Россия) (37 км)
Погода в Новодевичьем (Самарская область, Россия) (55 км)
Погода в Канадее (Ульяновская область, Россия) (59 км)
Погода в Тольятти (Самарская область, Россия) (71 км)
Погода в Безенчуке (Самарская область, Россия) (72 км)
Погода в Хвалынске (Саратовская область, Россия) (79 км)
Погода в Чапаевске (Самарская область, Россия) (91 км)
Погода в Сенгилее (Ульяновская область, Россия) (92 км)
Погода в Аглосе (Самарская область, Россия) (116 км)
Погода в Самаре АМС (Самарская область, Россия) (117 км)

Пояснения к столбцам:

Ветер - указаны скорость ветра в м/с - средняя за 10 мин, порывы в срок и между сроками (в фигурных скобках) и направление, откуда дует ветер: С - северный, СВ - северо-восточный, В - восточный, ЮВ - юго-восточный, Ю - южный, ЮЗ - юго-западный, З - западный, СЗ - северо-западный.
Видимость - горизонтальная дальность видимости в метрах или километрах. При видимости от 1 до 10 км при отсутствии осадков обычно наблюдается дымка, при ухудшении видимости до 1 км и менее - туман. В сухую погоду видимость может ухудшаться дымом, пылью или мглою.
Явления - указаны атмосферные явления, наблюдавшиеся в срок или в последний час перед сроком; фигурными скобками обозначены явления, наблюдавшиеся между сроками (за 1-3 часа до срока); квадратными скобками обозначены град или гололедные отложения с указанием их диаметра в мм.
Облачность - указаны через наклонную черту общая и нижняя облачность в баллах и высота нижней границы облаков в метрах; квадратными скобками обозначены формы облаков: Ci - перистые, Cs - перисто-слоистые, Cc - перисто-кучевые, Ac - высококучевые, As - высокослоистые, Sc - слоисто-кучевые, Ns - слоисто-дождевые, Cu - кучевые, Cb - кучево-дождевые. Подробнее классификацию облаков см. в Атласе облаков (PDF).
T - Температура воздуха - температура, измеренная на высоте 2 м над землей.
Td - Температура точки росы - температура, при понижении до которой содержащийся в воздухе водяной пар достигнет насыщения.
f - Относительная влажность воздуха - влажноcть воздуха, измеренная на высоте 2 м над землей.
Te - Эффективная температура - температура, которую ощущает одетый по сезону человек в тени. Характеристика душности погоды. При расчете учитывается влияние влажности воздуха и скорости ветра на теплоощущения человека.
Tes - Эффективная температура на солнце - температура, которую ощущает человек, с поправкой на солнечный нагрев. Характеристика знойности погоды. Зависит от высоты солнца над горизонтом, облачности и скорости ветра. Ночью, в пасмурную погоду, а также при ветре 12 м/с и более поправка равна нулю.
P - Атмосферное давление - приведенное к уровню моря атмосферное давление.
Po - Атмосферное давление - измеренное на уровне метеостанции атмосферное давление.
Tmin - Минимальная температура - минимум температуры воздуха на высоте 2 м над землей.
Tmax - Максимальная температура - максимум температуры воздуха на высоте 2 м над землей.
R - Количество осадков - Количество выпавших осадков за период времени, мм. При наведении курсора мыши на число - период времени, за который выпало указанное количество осадков.
R24 - Количество осадков - Количество выпавших осадков за 24 часа, мм.
S - Снежный покров - Высота снежного покрова, см. При наведении курсора мыши на число - состояние снежного покрова и степень покрытия местности в баллах.